TIME,DELAY(SENSOR),PRES,T(CTD),SAL,OXYGEN,RAWTEMP,T(OPTODE),TCPHASE,FLUOR,BETA(BETA700),BETA(BETA412),BETA(BETA440),CDOM,C(CSC),ED(ED412.40),ED(ED444.00),ED(ED489.70),ED(ED554.30),LU(LU411.80),LU(LU443.40),LU(LU489.60),LU(LU554.10),COMP,TILTX,TILTX(TILTY),CHECK
1376944259,5805,497.9899902343750000,6.1890001296997070,34.1355018615722660,64.1770935058593800,612.8245239257812000,6.1691970825195310,51.0352706909179700,53,103,88,79,78,15291,2147747830,2147424768,2148012534,2147874825,2147634102,2147066157,2148248320,2147197568,1643,3,13,60000
1376944469,5805,487.6099853515625000,6.3158001899719240,34.1100997924804700,76.3584289550781200,608.9702148437500000,6.2941107749938965,49.4733810424804700,52,105,87,80,77,15299,2147748022,2147425993,2148008521,2147872630,2147632438,2147074633,2148248603,2147197787,775,4,13,49124
1376944669,5809,475.7099914550781000,6.5960998535156250,34.1010017395019500,85.8907012939453100,599.9849853515625000,6.5847530364990230,48.2307395935058600,52,103,89,80,78,15296,2147749165,2147425398,2148010505,2147875044,2147632795,2147070381,2148243949,2147196918,2854,4,13,53956
1376944866,5807,461.6300048828125000,6.8941001892089840,34.0900993347168000,95.3603668212890600,590.9467773437500000,6.8763308525085450,47.0466995239257800,51,103,89,79,76,15295,2147747675,2147426166,2148010285,2147874962,2147627620,2147077604,2148240749,2147200073,2152,3,13,31402
1376944995,5805,449.8800048828125000,7.1813001632690430,34.1062011718750000,101.2482986450195300,582.0844116210938000,7.1614990234375000,46.2849502563476560,52,102,86,81,76,15296,2147750116,2147424923,2148008987,2147874386,2147628873,2147072658,2148240265,2147201060,875,4,12,37101
1376945104,5806,438.8999938964844000,7.7003002166748050,34.1431999206543000,99.1470870971679700,566.4044189453125000,7.6643071174621580,46.2560691833496100,50,103,85,80,76,15291,2147745673,2147424612,2148009289,2147870107,2147623213,2147080704,2148242898,2147198793,741,4,12,38718
1376945216,5809,427.9299926757812500,7.8069000244140625,34.1189002990722660,104.6333007812500000,561.9926147460938000,7.8053932189941410,45.6094398498535160,51,103,86,79,75,15291,2147742656,2147423542,2148008621,2147868470,2147623515,2147082560,2148238710,2147201371,3054,4,12,35953
1376945325,5803,417.3299865722656000,8.2072000503540040,34.1548995971679700,106.3832015991211000,550.0097045898438000,8.1877565383911130,45.2374801635742200,51,103,89,79,75,15291,2147742692,2147424978,2148008155,2147872429,2147621613,2147078857,2148236553,2147201179,2242,3,13,43953
1376945445,5805,405.8200073242187500,8.3109998703002930,34.1158981323242200,126.5876007080078100,546.0889282226562000,8.3126087188720700,43.1984481811523440,50,104,85,80,74,15291,2147741302,2147423186,2148011163,2147875766,2147621860,2147081929,2148235547,2147203547,1612,4,13,31260
1376945557,5806,395.1499938964844000,8.3649997711181640,34.0943984985351560,138.5191040039062500,544.8275146484375000,8.3527507781982420,42.1117897033691400,50,105,88,80,73,15294,2147740224,2147420992,2148006153,2147876004,2147622537,2147083254,2148234907,2147203611,539,4,13,10428
1376945677,5806,383.7799987792969000,8.7537002563476560,34.1097984313964840,148.3184967041015600,532.9509277343750000,8.7300605773925780,41.0827407836914060,50,105,85,80,74,15292,2147742089,2147422957,2148008173,2147875364,2147620452,2147087067,2148233810,2147201170,3323,4,13,24709
1376945797,5808,372.6600036621094000,9.1655998229980470,34.1385993957519500,141.7740936279297000,518.8223876953125000,9.1774797439575200,41.3883590698242200,50,105,86,79,74,15288,2147739785,2147423771,2148004608,2147873782,2147618916,2147090230,2148230674,2147200448,2929,3,13,10084
1376945931,5805,361.0199890136719000,9.4443998336792000,34.1311988830566400,153.2460937500000000,510.7231140136719000,9.4332971572875980,40.3015708923339840,50,105,87,80,73,15293,2147736082,2147425270,2148005275,2147872210,2147614208,2147094354,2148229979,2147202029,2184,3,13,44835
1376946062,5811,350.6499938964844000,9.6103000640869140,34.1301002502441400,159.0128936767578000,505.6091003417969000,9.5945749282836910,39.7602386474609400,50,106,87,80,72,15292,2147732608,2147427273,2148005888,2147872036,2147616265,2147096493,2148226541,2147207396,1563,3,13,55966
1376946217,5807,339.7799987792969000,9.8454999923706050,34.1346015930175800,165.0458068847656200,497.7557067871094000,9.8418836593627930,39.1661491394043000,50,106,87,80,71,15290,2147734262,2147427126,2148009572,2147873371,2147610212,2147100498,2148222582,2147202678,1062,3,13,37925
1376946381,5809,329.1000061035156000,10.1836004257202150,34.1337013244628900,173.2106018066406200,487.1012878417969000,10.1767196655273440,38.3876991271972660,50,105,88,80,71,15291,2147733814,2147425280,2148011693,2147870902,2147610112,2147102710,2148224841,2147199058,36,4,13,39217
1376946542,5810,317.0799865722656000,10.5902004241943360,34.1344985961914060,183.1708984375000000,474.0729064941406000,10.5851497650146480,37.4750518798828100,49,104,84,79,71,15289,2147730660,2147425508,2148016027,2147875794,2147609737,2147098130,2148229458,2147202733,1284,3,13,54740
1376946661,5807,305.7099914550781000,11.1789999008178710,34.1427001953125000,189.3339996337890600,455.2896118164062500,11.1721200942993160,36.7545890808105500,48,106,85,80,70,15293,2147732333,2147428489,2148020333,2147875474,2147608484,2147105545,2148231981,2147206564,36,3,13,28554
1376946772,5807,295.2600097656250000,11.5700998306274410,34.1502990722656250,191.7478942871093800,442.0838012695312500,11.5835599899292000,36.3823204040527340,48,104,86,80,69,15289,2147728722,2147429549,2148033453,2147873947,2147606482,2147116288,2148228699,2147205933,2693,4,13,27932
1376946892,5810,284.7000122070312500,12.1541996002197270,34.1831016540527340,195.5597991943359400,422.2120056152344000,12.2009096145629880,35.8195495605468750,48,103,84,79,67,15292,2147729042,2147434075,2148041956,2147873280,2147602779,2147116708,2148229760,2147203556,2554,3,14,27621
1376947045,5808,273.6300048828125000,12.8036003112792970,34.2267990112304700,204.9178009033203000,402.3247070312500000,12.8167800903320310,34.9342384338378900,48,102,86,80,68,15290,2147724809,2147443437,2148061696,2147875236,2147598646,2147124041,2148232082,2147207424,1002,3,13,56627
1376947193,5810,262.7200012207031000,13.7220001220703120,34.2984008789062500,212.8150024414062500,372.9213867187500000,13.7241802215576170,34.0232315063476560,48,103,88,78,66,15286,2147724516,2147449764,2148087158,2147874331,2147594697,2147134107,2148242852,2147209782,301,3,14,56737
1376947324,5809,251.4700012207031200,14.6639995574951170,34.4015998840332000,212.2411956787109400,341.5541076660156000,14.6886796951293950,33.5832786560058600,48,102,86,80,64,15287,2147721755,2147466029,2148125705,2147872841,2147592137,2147148598,2148257609,2147212050,2442,3,14,24296
1376947446,5809,240.2599945068359400,15.1780004501342770,34.4595985412597660,216.6246948242187500,323.9045104980469000,15.2300901412963870,33.0793495178222660,49,101,85,80,66,15284,2147723355,2147484059,2148174720,2147873426,2147588781,2147168813,2148277430,2147212096,459,3,14,49080
1376947566,5810,228.9100036621093800,15.9525995254516600,34.5438003540039060,216.8381958007812500,301.1979064941406000,15.9255304336547850,32.7375297546386700,49,105,86,80,67,15281,2147723410,2147514907,2148250176,2147875254,2147586121,2147183424,2148307181,2147217069,3246,3,13,10595
1376947686,5805,218.8200073242187500,16.7411994934082030,34.6374015808105500,216.6385040283203000,274.9439086914062500,16.7284507751464840,32.3723793029785160,50,103,85,80,64,15282,2147727067,2147558555,2148342180,2147877668,2147582601,2147216685,2148353142,2147218166,1296,3,14,46155
1376947820,5804,207.5399932861328000,17.1252002716064450,34.6847991943359400,219.4528961181640600,262.3403930664062500,17.1135807037353500,32.0435905456543000,50,102,87,80,63,15277,2147736045,2147619547,2148482880,2147875373,2147583744,2147258633,2148419858,2147224896,1734,3,14,1311
1376947951,5808,197.6499938964843800,17.5356998443603500,34.7341003417968750,216.1208038330078000,247.3860015869140600,17.5703792572021500,32.0120887756347660,50,105,82,79,63,15276,2147756544,2147705682,2148656283,2147876973,2147590720,2147312841,2148499126,2147232109,1973,3,14,6067
1376948005,5805,193.9100036621093800,17.8383998870849600,34.7701988220214840,215.7958984375000000,239.2675018310547000,17.8183307647705080,31.9164104461669920,50,104,85,81,65,15274,2147768036,2147751387,2148754569,2147872493,2147594953,2147343259,2148543286,2147237065,2251,3,14,35873
1376948083,5808,189.2100067138672000,17.8831005096435550,34.7795982360839840,215.7868041992187500,236.8383026123047000,17.8925094604492200,31.8829307556152340,50,102,86,79,65,15268,2147760694,2147693778,2148578861,2147873901,2147591204,2147321865,2148464466,2147233947,3207,2,15,33616
1376948148,5807,185.6399993896484400,18.1243991851806640,34.8119010925293000,215.6022949218750000,229.2097015380859400,18.1254692077636720,31.7868995666503900,51,100,85,80,64,15272,2147796836,2147859373,2148942262,2147874322,2147604736,2147406052,2148625709,2147244242,2526,2,15,9184
1376948235,5803,181.1499938964843800,18.3113002777099600,34.8364982604980500,216.1634979248047000,223.2127990722656200,18.3086109161376950,31.6739406585693360,50,104,86,80,63,15270,2147826724,2147970038,2149158692,2147877394,2147618267,2147475867,2148745088,2147253787,1719,3,15,33547
1376948311,5807,177.2200012207031200,18.6051998138427730,34.8814010620117200,216.7393035888672000,214.1168975830078000,18.5863895416259770,31.5181293487548830,52,104,88,79,63,15274,2147853046,2148044315,2149292790,2147877302,2147627428,2147527972,2148812022,2147255460,2048,2,15,515
1376948390,5808,173.4499969482422000,18.7268009185791000,34.8978996276855500,217.3587036132812500,209.0538940429687500,18.7410202026367200,31.4160308837890620,51,101,87,81,63,15270,2147884123,2148119442,2149437924,2147879506,2147641929,2147574052,2148880859,2147262628,1413,2,15,27667
1376948477,5807,169.9700012207031200,19.0930995941162100,34.9388999938964840,216.2852935791015600,201.2666015625000000,18.9788894653320300,31.3668804168701170,54,103,87,80,64,15270,2147897874,2148146294,2149452480,2147877897,2147647963,2147598217,2148902418,2147263780,1665,2,15,32989
1376948619,5806,166.3600006103515600,19.6320991516113280,34.9954986572265600,213.3740997314453000,180.9907073974609400,19.5984592437744140,31.2469596862792970,63,111,83,81,63,15258,2147964745,2148318948,2149770715,2147879222,2147672109,2147694829,2149038939,2147277312,1768,2,15,3870
1376948764,5812,162.0000000000000000,19.8966999053955080,35.0396003723144500,212.1457977294922000,171.4046020507812500,19.8915500640869140,31.1833896636962900,64,113,86,79,62,15255,2148050523,2148500434,2150052352,2147882212,2147705316,2147803638,2149161563,2147285696,3487,2,15,45076
1376948873,5806,157.9299926757812500,20.2385005950927730,35.0881004333496100,215.8464965820312500,160.1645965576172000,20.2353897094726560,30.8356895446777340,69,110,87,81,63,15249,2148173302,2148792448,2150558326,2147883136,2147756580,2147965869,2149387885,2147301778,113,2,14,57142
1376949011,5806,153.2299957275390600,20.5161991119384770,35.1181983947753900,217.0818023681640600,150.1217956542968800,20.5427894592285160,30.6370601654052730,75,111,89,81,62,15242,2148337993,2149103515,2151061970,2147889801,2147826322,2148145618,2149624566,2147321664,155,2,15,33450
1376949098,5811,149.8399963378906200,20.6630992889404300,35.1166000366210940,215.1016998291015600,146.1882019042968800,20.6632404327392580,30.6886806488037100,81,116,87,81,62,15230,2148517769,2149424256,2151537307,2147894336,2147894006,2148300973,2149823286,2147337709,42,2,15,4894
1376949196,5809,145.9100036621093800,20.8743000030517580,35.1376991271972660,214.6092987060547000,139.1295013427734400,20.8794898986816400,30.6210899353027340,88,117,87,81,62,15224,2148752658,2149779730,2152019090,2147902784,2147976283,2148472987,2150016512,2147351341,2370,2,16,43903
1376949313,5808,139.7500000000000000,21.1499004364013670,35.1698989868164060,218.1817932128906200,130.5227050781250000,21.1433105468750000,30.3210906982421880,90,120,88,82,61,15214,2149335625,2150742902,2153433490,2147916955,2148195264,2148911222,2150565851,2147396516,1715,2,15,20159
1376949367,5808,135.6300048828125000,21.3857994079589840,35.2004013061523440,219.4187927246093800,122.1184997558593800,21.4011096954345700,30.1476306915283200,102,121,88,83,60,15202,2149819867,2151527707,2154587492,2147929325,2148391378,2149301421,2151047862,2147437366,943,2,15,50523
1376949421,5809,131.4700012207031200,21.5646991729736330,35.2174987792968750,222.1401977539062500,117.2024993896484400,21.5519905090332030,29.9455299377441400,103,123,88,84,62,15195,2150344228,2152319963,2155705490,2147946989,2148600466,2149690971,2151512539,2147480201,290,2,15,4418
1376949475,5808,127.2799987792968800,21.6716995239257800,35.2317008972168000,223.1616058349609400,110.6977005004882800,21.7517509460449220,29.8098201751709000,109,121,89,82,62,15187,2151009024,2153342308,2157143268,2147966747,2148862820,2150131712,2152038025,2147526546,378,1,15,10181
1376949529,5808,123.5199966430664000,22.1697006225585940,35.2901000976562500,227.0095062255859400,98.5892028808593800,22.1239490509033200,29.4640293121337900,124,126,86,84,60,15167,2151764470,2154476233,2158726272,2147997193,2149142555,2150590290,2152586971,2147577024,3194,2,15,40285
1376949607,5809,120.1800003051757800,22.4099998474121100,35.3269004821777340,231.0193023681640600,92.1398468017578100,22.3223896026611330,29.1881809234619140,134,120,89,82,60,15163,2152529645,2155693568,2160377545,2148019830,2149455680,2151080027,2153177334,2147631149,191,2,15,13441
1376949949,5809,116.0500030517578100,22.6930999755859380,35.3437004089355500,239.3043975830078000,80.3892822265625000,22.6843299865722660,28.6537399291992200,116,118,89,83,60,15169,2153534793,2156901595,2161200731,2148049856,2149896475,2151417728,2153332342,2147662838,772,2,15,578
1376950047,5808,111.3700027465820300,22.7504997253417970,35.3456993103027340,241.1712951660156200,78.4083633422851600,22.7453899383544920,28.5441093444824220,102,117,90,83,59,15171,2156390884,2161100891,2166544502,2148157202,2151165449,2153449371,2155627410,2147868626,3531,1,15,48825
1376950123,5805,106.9199981689453100,22.8285999298095700,35.3390998840332000,241.4815063476562500,76.2694931030273400,22.8113498687744140,28.5033302307128900,95,122,89,82,60,15166,2158598912,2164145243,2170141257,2148261339,2152158226,2154941010,2157214445,2148019337,3312,2,15,38266
1376950188,5804,103.4199981689453100,22.8586997985839840,35.3307991027832000,241.4631958007812500,74.5459518432617200,22.8645095825195300,28.4825897216796880,93,124,91,83,59,15165,2160437403,2166541430,2172858779,2148353746,2152981750,2156133330,2158445622,2148137042,2650,1,15,33404
1376950267,5801,100.0299987792968800,22.9799995422363280,35.3227005004882800,242.0162048339843800,71.7904510498046900,22.9495201110839840,28.4230995178222660,93,122,88,84,58,15166,2162749961,2169569261,2176174281,2148482733,2154081472,2157724964,2160056530,2148288612,1838,2,15,8182
1376950321,5807,98.5400009155273400,23.0091991424560550,35.3210983276367200,241.9777984619140600,70.4500732421875000,22.9908790588378900,28.4080009460449220,88,122,91,84,57,15169,2164350052,2171670198,2178525440,2148542729,2154790948,2158766235,2161090797,2148388342,2102,2,16,64780
1376950375,5806,97.5400009155273400,23.0832996368408200,35.3250007629394500,242.0404052734375000,68.2386169433593800,23.0591506958007800,28.3775596618652340,84,123,92,84,59,15165,2156342208,2159274834,2161999122,2148173238,2151422427,2153058834,2154357220,2147781878,2306,1,16,57585
1376950506,5804,95.4899978637695300,23.1240005493164060,35.3258018493652340,243.1463928222656200,66.2813110351562500,23.1195793151855470,28.3037490844726560,84,122,90,84,57,15165,2167345618,2175134125,2181868269,2148704685,2156381275,2160937773,2163062116,2148577398,2849,1,16,40857
1376950590,5806,92.5800018310546900,23.2427005767822270,35.3204994201660160,243.7687988281250000,63.1159896850585940,23.2173500061035160,28.2364807128906250,79,126,91,85,58,15161,2171075200,2179769106,2186879177,2148945883,2158293403,2163598208,2165630052,2148829449,2597,1,16,55525
1376950644,5808,89.7099990844726600,23.3271999359130860,35.3199005126953100,244.1358032226562500,59.8226203918457000,23.3191204071044920,28.1793098449707030,79,124,89,84,58,15160,2174081682,2183307218,2190627922,2149192064,2159972242,2165850541,2167691072,2149044836,3136,1,16,28679
1376950698,5808,86.7099990844726600,23.4776992797851560,35.3151016235351560,243.9649047851562500,55.3410186767578100,23.4576797485351560,28.1310405731201170,77,125,92,83,58,15155,2177996781,2187968868,2195580653,2149500507,2162075803,2168668544,2170243730,2149319433,3393,1,16,38918
1376950752,5809,84.1100006103515600,23.5168991088867200,35.3137016296386700,244.3303985595703000,53.5781402587890600,23.5122108459472660,28.0931491851806640,75,125,90,85,57,15158,2181410541,2191983469,2199818724,2149771821,2164073261,2171272649,2172567597,2149553133,3512,1,16,42139
1376950806,5805,81.8499984741211000,23.5571002960205080,35.3132019042968750,244.4824981689453000,52.2748298645019500,23.5525302886962900,28.0701198577880860,76,124,92,85,59,15161,2185578761,2196639698,2204655469,2150151808,2166434258,2174381001,2175405833,2149857920,2930,1,16,23087
1376950863,5806,79.7500000000000000,23.6229991912841800,35.3032989501953100,244.0386962890625000,50.3427886962890600,23.6123199462890620,28.0656299591064450,72,125,92,86,57,15145,2189636077,2201226084,2209419538,2150514038,2168401709,2176737280,2177365814,2150071030,2552,2,16,1706
1376950917,5810,78.2300033569336000,23.6578006744384770,35.2921981811523440,243.3574066162109400,49.4234390258789060,23.6407699584960940,28.0844993591308600,72,129,91,85,58,15153,2192152667,2203749842,2211731465,2150785718,2169928429,2178574857,2178842148,2150245906,2389,1,16,18281
1376951037,5807,76.8399963378906200,23.8481006622314450,35.2877998352050800,243.3191070556640600,43.9202995300293000,23.8111896514892580,28.0178508758544920,74,126,90,85,56,15140,2195775771,2207111204,2214411675,2150987593,2172228736,2181220726,2180760438,2150457572,3150,1,16,2428
1376951252,5807,73.7699966430664000,23.9871006011962900,35.2812995910644500,244.9803009033203000,38.3165397644043000,23.9848804473876950,27.8754291534423830,70,127,92,85,60,15126,2207448128,2219641828,2226625371,2152131794,2179210660,2189337700,2187193956,2151219584,503,1,16,57938
1376951306,5808,71.4000015258789000,24.0245990753173830,35.2845993041992200,245.6826934814453000,37.0588684082031250,24.0238800048828120,27.8292198181152340,70,128,90,86,58,15131,2211413321,2222528064,2228284150,2152555108,2182599899,2193130944,2190157760,2151541723,3253,1,16,23209
1376951360,5806,68.8600006103515600,24.0741996765136720,35.2843017578125000,246.2449951171875000,35.5015411376953100,24.0721797943115230,27.7854804992675780,68,128,92,86,57,15123,2220585051,2232556461,2238827510,2153699858,2187618816,2199041773,2195123044,2152155849,2625,1,16,17702
1376951414,5809,66.3899993896484400,24.1711997985839840,35.2705993652343750,246.6620025634765600,32.5362586975097660,24.1641902923584000,27.7309093475341800,68,130,94,85,59,15128,2228319113,2240793563,2247112694,2154929581,2192335789,2204301193,2199407588,2152726537,2161,1,16,8432
1376951498,5807,62.4599990844726560,24.2840003967285160,35.2555007934570300,247.9537048339843800,28.7014904022216800,24.2832508087158200,27.6278495788574220,68,132,92,85,57,15113,2243380973,2256124480,2261793554,2157148754,2202304320,2215331090,2207967204,2153997202,870,1,16,39135
1376951552,5807,59.7999992370605500,24.3640003204345700,35.2531013488769500,249.2118072509765600,26.2719097137451170,24.3587207794189450,27.5441493988037100,65,133,92,86,57,15115,2257073088,2269903789,2275841517,2159620900,2211127762,2225153536,2215862445,2155120064,3565,1,16,15520
1376951606,5809,57.4599990844726560,24.4274997711181640,35.2510986328125000,249.9176940917968800,23.9338893890380860,24.4313697814941400,27.4853496551513670,64,131,94,86,57,15117,2264850532,2276173248,2280313526,2160756900,2218192576,2232339894,2221011428,2155885248,118,2,16,529
1376951660,5810,55.3800010681152340,24.5349006652832030,35.2492980957031250,250.7772979736328000,20.4754905700683600,24.5389003753662100,27.4065895080566400,65,134,97,87,57,15105,2272417828,2282548617,2285770285,2162449773,2224717568,2238566738,2225380150,2156638793,26,1,15,0
1376951714,5808,53.7200012207031250,24.6366004943847660,35.2514991760253900,251.2662963867187500,16.9095001220703120,24.6498298645019530,27.3423194885253900,61,133,93,86,57,15111,2210588461,2210713600,2207879250,2153962450,2189446930,2193803730,2185097252,2151560896,3308,1,16,4260
1376951771,5807,52.2999992370605500,24.8029994964599600,35.2616996765136700,251.6602935791015600,12.4385204315185550,24.7890205383300780,27.2712707519531250,63,133,95,87,56,15105,2290867264,2299548873,2301642806,2166118372,2239726436,2253876379,2236474806,2158395922,3302,1,16,21265
1376951880,5814,50.5699996948242200,24.9638004302978500,35.2703018188476560,251.0838928222656200,7.0640177726745605,24.9564800262451170,27.2300395965576170,61,133,92,86,55,15094,2300477357,2307757238,2308472082,2168031780,2247571062,2260867181,2240795181,2158919771,2692,1,16,13494
1376952044,5807,48.5499992370605500,25.0760002136230470,35.2624015808105500,252.1307067871093800,3.2356379032135010,25.0758705139160160,27.1394805908203120,61,135,94,86,57,15089,2323060516,2330817225,2330985179,2172540708,2266141805,2280068461,2255496905,2161284498,1723,1,16,59776
1376952149,5809,45.6300010681152340,25.2112007141113280,35.2643013000488300,252.2924041748047000,-1.0228159427642822,25.2087707519531250,27.0810203552246100,59,133,92,87,55,15113,2346667766,2352331739,2350625828,2178961700,2287742445,2300805842,2269994477,2163974774,1413,1,16,28417
1376952203,5808,43.5900001525878900,25.4526004791259770,35.2512016296386700,252.0695953369140600,-8.2642526626586910,25.4350109100341800,27.0026092529296880,59,136,92,88,57,15106,2367901092,2373093248,2370929069,2184472841,2304402971,2316939200,2281534866,2165958866,1483,1,16,40400
1376952257,5810,42.1199989318847660,25.5233001708984380,35.2507019042968750,252.3007965087890600,-10.5379495620727540,25.5061092376709000,26.9652996063232420,57,132,96,88,57,15113,2241756608,2237068315,2230150592,2160277814,2216893686,2216991908,2199064704,2154175021,1313,2,16,60655
1376952355,5807,40.7200012207031250,25.7289009094238280,35.2382011413574200,251.7389068603515600,-16.6853694915771500,25.6985206604003900,26.9144706726074220,59,130,95,88,54,15096,2399817179,2405560923,2405842267,2195973211,2319657773,2329497618,2289351725,2168883739,2159,1,17,62226
1376952527,5810,38.5400009155273440,26.1763000488281250,35.2501983642578100,249.2669982910156200,-31.4128303527832030,26.1604404449462900,26.8401794433593750,56,134,94,87,56,15089,2358508059,2353687579,2344245796,2185174226,2319254171,2321248612,2277580909,2166013202,1627,1,16,35525
1376953123,5807,35.9199981689453100,27.3729000091552730,35.3460998535156250,227.0052947998047000,-70.2208175659179700,27.3848304748535160,27.3538398742675780,52,117,89,83,52,15144,2407553106,2405253888,2398115026,2203287616,2378063058,2375196288,2315276059,2173281673,2229,1,16,35464
1376953177,5811,34.0200004577636700,27.4001007080078120,35.3518981933593750,226.5581054687500000,-71.1689910888671900,27.4148807525634770,27.3629798889160160,52,115,88,83,56,15149,2419183689,2416437202,2410227721,2211292251,2399714688,2394036882,2327171757,2176001161,2338,1,17,2846
1376953231,5811,32.0900001525878900,27.4157009124755860,35.3512001037597660,226.2270965576172000,-71.7816009521484400,27.4342994689941400,27.3708705902099600,53,115,88,83,54,15142,2447367003,2447474285,2444575085,2226463469,2420776493,2411636772,2338033060,2179225389,2004,1,17,27788